Location: Lake Lucerne
(45.5315°N, 88.8489°W)
Time: 02:09:17
(UTC-05:00)

OTV 5 (USA 277) - Visible Passes

Search period start: 24 September 2018 00:00
Search period end: 04 October 2018 00:00
Orbit: 387 x 394 km, 54.5° (Epoch: 08 September)

Date Brightness Start Highest point End Pass type
(mag) Time Alt. Az. Time Alt. Az. Time Alt. Az.
26 Sep ? 06:15:01 10° SSW 06:17:56 33° SE 06:20:51 10° ENE visible
27 Sep ? 05:19:44 10° S 05:21:48 16° SE 05:23:52 10° E visible
28 Sep ? 05:57:53 10° SW 06:01:02 62° SE 06:04:13 10° ENE visible
29 Sep ? 05:03:56 25° SSE 05:04:48 29° SE 05:07:38 10° ENE visible
30 Sep ? 04:10:04 11° ESE 04:10:04 11° ESE 04:10:29 10° E visible
30 Sep ? 05:42:28 24° WSW 05:44:13 72° NW 05:47:26 10° NE visible
01 Oct ? 04:48:30 45° E 04:48:30 45° E 04:51:02 10° ENE visible
01 Oct ? 06:21:11 10° W 06:24:00 27° NNW 06:26:48 10° NE visible
02 Oct ? 05:26:50 37° WNW 05:27:28 43° NNW 05:30:34 10° NE visible
03 Oct ? 04:32:43 26° NE 04:32:43 26° NE 04:34:15 10° NE visible
03 Oct ? 06:05:07 12° WNW 06:07:22 21° NNW 06:09:54 10° NE visible
